Regional Weather Roundup
Issued by NWS

Home | Current Version | Previous Version | Graphics & Text | Print | Product List | Glossary On
Versions: 1 2 3 4 5 6 7 8 9 10 11 12 13 14 15 16 17 18 19 20 21 22 23 24 25 26 27 28 29 30 31 32 33 34 35 36 37 38 39 40 41 42 43 44 45 46 47 48 49 50
000
ASUS43 KTOP 230259
RWRKS

WEATHER ROUNDUP FOR KANSAS
NATIONAL WEATHER SERVICE GOODLAND KS
1000 PM CDT TUE JUL 22 2014

NOTE:  "FAIR" INDICATES FEW OR NO CLOUDS BELOW 12,000 FEET WITH NO
SIGNIFICANT WEATHER AND/OR OBSTRUCTIONS TO VISIBILITY.

KSZ001>006-013>018-027>032-041>047-230400-
NORTHWEST KANSAS

CITY           SKY/WX    TMP DP  RH WIND       PRES   REMARKS
GOODLAND       CLEAR     80  67  64 E13       30.21R
HAYS           CLEAR     82  64  54 SE7       30.11R
HILL CITY      CLEAR     84  72  67 E10       30.13R
RUSSELL        CLEAR     84  69  60 S9        30.08R
$$

KSZ061>065-074>080-084>089-230400-
SOUTHWEST KANSAS

CITY           SKY/WX    TMP DP  RH WIND       PRES   REMARKS
DODGE CITY     CLEAR     80  65  59 S6        30.16R
ELKHART          N/A     76  60  57 S8          N/A
GARDEN CITY    CLEAR     80  69  69 SE6       30.16R
GREAT BEND     PTCLDY    81  70  69 S7        30.09R
LIBERAL        CLEAR     79  63  57 S7        30.18R
$$

KSZ066>073-081>083-090>101-230400-
SOUTHEAST KANSAS

CITY           SKY/WX    TMP DP  RH WIND       PRES   REMARKS
CHANUTE        CLEAR     82  75  79 SW6       30.05R
COFFEYVILLE    PTCLDY    84  76  76 S6        30.05R
HUTCHINSON     CLEAR     77  70  79 CALM      30.07S
MEDICINE LODGE   N/A     87  71  58 SE3       30.08R
NEWTON         CLEAR     84  66  54 S7        30.12R
PARSONS        PTCLDY    83  75  77 S5        30.06R
WICHITA INTL   CLEAR     85  72  65 S9        30.07R
WICHITA JABRA  CLEAR     83  73  72 S8        30.08R
WINFIELD       CLEAR     82  75  79 S6        30.08R
$$

KSZ007>012-019>026-033>040-048>060-102>105-230400-
NORTHEAST KANSAS

CITY           SKY/WX    TMP DP  RH WIND       PRES   REMARKS
CONCORDIA      CLEAR     84  74  71 NE9       30.10R
EMPORIA        CLEAR     85  70  60 SW10      30.04R
LAWRENCE       CLEAR     86  77  74 CALM      30.04R HAZE    HX  97
MANHATTAN      CLEAR     88  76  67 NE10      30.04R HX  99
OLATHE IND     CLEAR     86  75  69 NE6       30.05R HX  95
OLATHE EXE     CLEAR     85  76  74 CALM      30.04R
SALINA         CLEAR     92  67  43 SW9       30.05R HX  95
TOPEKA BILLARD CLEAR     88  79  74 NE8       30.04R HX 103
TOPEKA FORBES  CLEAR     88  76  67 NE9       30.05R HX  99
$$


USA.gov is the U.S. government's official web portal to all federal, state and local government web resources and services.